User: anonymous   Login
Location: Famechon
(49.7599°N, 2.0615°E)
Time: 14:07:36
(UTC+00:00)
Language:

FENGYUN 1C DEB - Orbit

View from above orbital plane
View from above orbital plane
View from above satellite
View from above satellite

Ground track
Ground track

The orbit data is extracted from the following two-line orbital elements,

1 30949U 99025BAP 24192.46025628  .00000688  00000-0  36615-3 0  9997
2 30949  98.6769 195.4513 0118432 354.8953 165.8088 14.13097869891659
Epoch (UTC): 10 July 2024 11:02:46
Eccentricity: 0.0118432
inclination: 98.6769°
perigee height: 763 km
apogee height: 934 km
right ascension of ascending node: 195.4513°
argument of perigee: 354.8953°
revolutions per day: 14.13097869
mean anomaly at epoch: 165.8088°
orbit number at epoch: 89165

The dashed part of the orbit path shows where the satellite is in the earth's shadow,  

DLR